{"data":{"norad_id":57451,"epoch":"2026-05-24T20:14:28.394016Z","epoch_age_seconds":82394,"freshness":"FRESH","line1":"1 57451U 23105X   26144.84338419  .00004101  00000+0  15854-3 0  9991","line2":"2 57451  43.0037 189.3480 0000967 305.8669  54.2093 15.27567758157079","mean_motion":15.27567758,"eccentricity":9.67e-5,"inclination_deg":43.0037,"raan_deg":189.348,"arg_perigee_deg":305.8669,"mean_anomaly_deg":54.2093,"bstar":0.00015854,"rev_number":15707,"period_min":94.267504171818,"perigee_km":482.42227299626,"apogee_km":483.74923347674,"semimajor_km":6861.2227532365,"source":"CELESTRAK","updated_at":"2026-05-25T13:38:18.322784Z"}}